This demonstration page uses our WeatherBlox Daily Observations layout. Learn more.

Left ArrowRight Arrow

44.89941, -97.11507

Hourly Observations for May 22, 2022

Temp ( °F °C ) Dew Point ( °F °C ) Humidity (%) Winds ( mph kmh ) Pressure ( in mb ) Visibility ( mi km ) Precip ( " mm )
12:53 am 00:53 Clear 39 3.9 36 2.2 89 89 WNW 7 11 30.28 1026 10 16 0.00 0.00
1:53 am 01:53 Clear 39 3.9 36 2.2 89 89 WNW 7 11 30.29 1026 10 16 0.00 0.00
2:53 am 02:53 Cloudy 40 4.4 36 2.2 86 86 WNW 7 11 30.29 1026 10 16 0.00 0.00
3:53 am 03:53 Clear 40 4.4 36 2.2 86 86 WNW 7 11 30.29 1026 10 16 0.00 0.00
4:53 am 04:53 Clear 39 3.9 36 2.2 89 89 NW 7 11 30.31 1026 10 16 0.00 0.00
5:53 am 05:53 Sunny 38 3.3 36 2.2 93 93 WNW 6 9 30.32 1027 10 16 0.00 0.00
6:53 am 06:53 Sunny 40 4.4 38 3.3 93 93 NW 5 7 30.33 1027 10 16 0.00 0.00
7:53 am 07:53 Sunny 43 6.1 37 2.8 80 80 NW 6 9 30.36 1028 10 16 0.00 0.00
8:53 am 08:53 Sunny 45 7.2 34 1.1 66 66 W 6 9 30.39 1029 10 16 0.00 0.00
9:53 am 09:53 Sunny 48 8.9 34 1.1 58 58 W 6 9 30.38 1029 10 16 0.00 0.00
10:53 am 10:53 Mostly Sunny 50 10 32 0 50 50 VRB 6 9 30.39 1029 10 16 0.00 0.00
11:53 am 11:53 Mostly Cloudy 50 10 31 -0.6 48 48 SW 7 11 30.40 1029 10 16 0.00 0.00
12:53 pm 12:53 Cloudy 51 10.6 30 -1.1 44 44 SSW 9 15 30.40 1029 10 16 0.00 0.00
1:53 pm 13:53 Cloudy 52 11.1 29 -1.7 41 41 WSW 6 9 30.39 1029 10 16 0.00 0.00
2:53 pm 14:53 Cloudy 53 11.7 28 -2.2 38 38 WSW 13 20 30.37 1028 10 16 0.00 0.00
3:53 pm 15:53 Mostly Cloudy 53 11.7 29 -1.7 40 40 NW 8 13 30.35 1028 10 16 0.00 0.00
4:53 pm 16:53 Mostly Cloudy 56 13.3 30 -1.1 37 37 NW 10 17 30.32 1027 10 16 0.00 0.00
5:53 pm 17:53 Sunny 54 12.2 28 -2.2 37 37 Calm 30.32 1027 10 16 0.00 0.00
6:53 pm 18:53 Sunny 54 12.2 27 -2.8 35 35 W 6 9 30.32 1027 10 16 0.00 0.00
7:53 pm 19:53 Cloudy 53 11.7 30 -1.1 41 41 Calm 30.32 1027 10 16 0.00 0.00
8:53 pm 20:53 Sunny 51 10.6 30 -1.1 44 44 Calm 30.32 1027 10 16 0.00 0.00
9:53 pm 21:53 Clear 47 8.3 29 -1.7 50 50 Calm 30.33 1027 10 16 0.00 0.00
10:53 pm 22:53 Clear 47 8.3 30 -1.1 52 52 SE 5 7 30.33 1027 10 16 0.00 0.00
11:53 pm 23:53 Clear 43 6.1 31 -0.6 63 63 SE 3 6 30.34 1028 10 16 0.00 0.00

Powered by AerisWeather